Regional Weather Roundup
Issued by NWS

Home | Current Version | Previous Version | Graphics & Text | Print | Product List | Glossary On
Versions: 1 2 3 4 5 6 7 8 9 10 11 12 13 14 15 16 17 18 19 20 21 22 23 24 25 26 27
000
ASUS45 KBOI 180310
RWRID

IDAHO REGIONAL WEATHER ROUNDUP
NATIONAL WEATHER SERVICE BOISE ID
900 PM MDT THU AUG 17 2017

NOTE: "FAIR" INDICATES FEW OR NO CLOUDS BELOW 12000 FEET
WITH NO SIGNIFICANT WEATHER AND/OR OBSTRUCTIONS TO VISIBILITY

IDZ012-014-180400-
SOUTHWEST IDAHO


CITY           SKY/WX    TMP DP  RH WIND       PRES   REMARKS
BOISE          CLEAR     79  34  19 NW5       30.03R
CALDWELL       CLEAR     79  45  29 CALM      30.01S
MOUNTAIN HOME  CLEAR     79  34  19 NW9       30.04R
$$

IDZ016-017-180400-
SOUTHCENTRAL IDAHO


CITY           SKY/WX    TMP DP  RH WIND       PRES   REMARKS
BURLEY         CLEAR     70  47  43 S9        30.09R
JEROME         CLEAR     74  41  30 SW7       30.09R
TWIN FALLS     CLEAR     70  41  34 SW9       30.10R
$$

IDZ019>023-180400-
SOUTHEAST IDAHO


CITY           SKY/WX    TMP DP  RH WIND       PRES   REMARKS
IDAHO FALLS    CLEAR     75  38  26 S13       30.12R
POCATELLO      CLEAR     69  39  33 S9        30.12R
REXBURG        CLEAR     70  38  31 S6        30.12R
$$

IDZ006-010-011-018-031-032-180400-
CENTRAL IDAHO MOUNTAINS


CITY           SKY/WX    TMP DP  RH WIND       PRES   REMARKS
MCCALL         CLEAR     73  35  25 CALM      30.15R
HAILEY         CLEAR     70  45  40 SE7       30.14R
STANLEY          N/A     64  36  35 CALM      30.24R
SALMON         CLOUDY    69  41  36 S6        30.06R
CHALLIS        CLEAR     71  33  24 NW6       30.10R
$$

IDZ002-004-006-007-026-180400-
NORTHERN IDAHO


CITY           SKY/WX    TMP DP  RH WIND       PRES   REMARKS
LEWISTON       CLEAR     82  39  21 NW5       30.00R
LOWELL           N/A     71  49  45 CALM      30.00R
COEUR D`ALENE  CLEAR     71  45  39 S6        30.04S
MULLAN PASS    CLEAR     59  38  45 W5        30.24R
$$




USA.gov is the U.S. government's official web portal to all federal, state and local government web resources and services.